| time (UTC) | temp F | wind direction | speed MPH | gust MPH | rain 1hr in | rain 24hr in | rain mn in | humidity % | barometer mb |
| 20260507000408 | 58 | 115 | 4.0 | 5.0 | 0.00 | 0.10 | 0.10 | 94 | 1006.1 |
| 20260506235905 | 58 | 112 | 4.0 | 5.0 | 0.00 | 0.10 | 0.10 | 94 | 1005.9 |
| 20260506235402 | 58 | 116 | 3.0 | 6.0 | 0.00 | 0.10 | 0.10 | 94 | 1005.9 |
| 20260506234858 | 58 | 117 | 4.0 | 5.0 | 0.00 | 0.10 | 0.10 | 94 | 1005.8 |
| 20260506234355 | 58 | 136 | 4.0 | 6.0 | 0.02 | 0.10 | 0.10 | 94 | 1005.7 |
| 20260506233853 | 58 | 106 | 2.0 | 5.0 | 0.02 | 0.10 | 0.10 | 94 | 1005.9 |
| 20260506233349 | 58 | 117 | 4.0 | 5.0 | 0.00 | 0.09 | 0.09 | 94 | 1005.9 |
| 20260506232846 | 58 | 112 | 4.0 | 6.0 | 0.02 | 0.09 | 0.09 | 94 | 1005.7 |
| 20260506232342 | 58 | 131 | 3.0 | 6.0 | 0.05 | 0.09 | 0.09 | 94 | 1005.6 |
| 20260506231838 | 59 | 122 | 4.0 | 6.0 | 0.02 | 0.09 | 0.09 | 94 | 1005.8 |
| 20260506231336 | 59 | 110 | 4.0 | 5.0 | 0.00 | 0.09 | 0.09 | 94 | 1005.9 |
| 20260506230833 | 59 | 118 | 3.0 | 5.0 | 0.00 | 0.09 | 0.09 | 94 | 1005.6 |
| 20260506230330 | 59 | 124 | 3.0 | 5.0 | 0.05 | 0.09 | 0.09 | 94 | 1005.9 |
| 20260506225826 | 59 | 114 | 2.0 | 4.0 | 0.05 | 0.08 | 0.08 | 93 | 1005.7 |
| 20260506225324 | 59 | 146 | 4.0 | 5.0 | 0.05 | 0.08 | 0.08 | 93 | 1005.7 |
| 20260506224820 | 59 | 139 | 6.0 | 6.0 | 0.02 | 0.07 | 0.07 | 93 | 1005.6 |
| 20260506224318 | 59 | 113 | 2.0 | 5.0 | 0.00 | 0.07 | 0.07 | 93 | 1005.9 |
| 20260506223814 | 59 | 114 | 2.0 | 5.0 | 0.00 | 0.07 | 0.07 | 93 | 1005.9 |
| 20260506223309 | 59 | 102 | 2.0 | 6.0 | 0.00 | 0.07 | 0.07 | 93 | 1006.1 |
| 20260506222807 | 59 | 123 | 4.0 | 4.0 | 0.02 | 0.07 | 0.07 | 93 | 1006.1 |
| 20260506222305 | 59 | 152 | 5.0 | 7.0 | 0.02 | 0.07 | 0.07 | 92 | 1006.0 |
| 20260506221800 | 59 | 109 | 4.0 | 5.0 | 0.00 | 0.07 | 0.07 | 92 | 1006.0 |
| 20260506221258 | 59 | 116 | 3.0 | 4.0 | 0.00 | 0.07 | 0.07 | 92 | 1006.1 |
| 20260506220755 | 59 | 116 | 2.0 | 5.0 | 0.00 | 0.07 | 0.07 | 92 | 1006.3 |
| 20260506220255 | 59 | 136 | 3.0 | 4.0 | 0.00 | 0.07 | 0.07 | 92 | 1006.3 |
| 20260506215752 | 59 | 129 | 4.0 | 4.0 | 0.00 | 0.07 | 0.07 | 91 | 1006.2 |
| 20260506215248 | 59 | 116 | 4.0 | 6.0 | 0.00 | 0.07 | 0.07 | 91 | 1006.3 |
| 20260506214744 | 59 | 95 | 4.0 | 6.0 | 0.00 | 0.07 | 0.07 | 91 | 1006.1 |
| 20260506214241 | 59 | 140 | 6.0 | 10.0 | 0.02 | 0.07 | 0.07 | 91 | 1006.1 |
| 20260506213740 | 59 | 135 | 4.0 | 7.0 | 0.05 | 0.07 | 0.07 | 91 | 1006.6 |
| 20260506213237 | 60 | 146 | 5.0 | 7.0 | 0.02 | 0.06 | 0.06 | 90 | 1006.6 |
| 20260506212734 | 60 | 111 | 3.0 | 5.0 | 0.00 | 0.06 | 0.06 | 90 | 1006.5 |
| 20260506212230 | 60 | 108 | 3.0 | 4.0 | 0.00 | 0.06 | 0.06 | 90 | 1006.4 |
| 20260506211725 | 60 | 109 | 4.0 | 5.0 | 0.00 | 0.06 | 0.06 | 90 | 1006.5 |
| 20260506211222 | 60 | 75 | 2.0 | 7.0 | 0.00 | 0.06 | 0.06 | 90 | 1006.6 |
| 20260506210719 | 59 | 169 | 2.0 | 5.0 | 0.00 | 0.06 | 0.06 | 90 | 1006.6 |
| 20260506210216 | 59 | 154 | 12.0 | 12.0 | 0.00 | 0.06 | 0.06 | 90 | 1006.6 |
| 20260506205713 | 59 | 139 | 4.0 | 4.0 | 0.00 | 0.06 | 0.06 | 90 | 1006.7 |
| 20260506205208 | 59 | 118 | 3.0 | 5.0 | 0.00 | 0.06 | 0.06 | 90 | 1006.7 |
| 20260506204705 | 59 | 115 | 5.0 | 5.0 | 0.00 | 0.06 | 0.06 | 90 | 1006.7 |
| 20260506204202 | 59 | 146 | 4.0 | 6.0 | 0.00 | 0.06 | 0.06 | 89 | 1006.6 |
| 20260506203700 | 60 | 99 | 3.0 | 6.0 | 0.00 | 0.06 | 0.06 | 89 | 1006.8 |
| 20260506203157 | 60 | 144 | 5.0 | 8.0 | 0.02 | 0.06 | 0.06 | 89 | 1007.0 |
| 20260506202655 | 60 | 130 | 4.0 | 5.0 | 0.02 | 0.06 | 0.06 | 89 | 1007.1 |
| 20260506202150 | 60 | 112 | 4.0 | 7.0 | 0.00 | 0.06 | 0.06 | 89 | 1006.9 |
| 20260506201648 | 60 | 116 | 6.0 | 8.0 | 0.00 | 0.06 | 0.06 | 90 | 1006.9 |
| 20260506201144 | 60 | 141 | 4.0 | 5.0 | 0.00 | 0.06 | 0.06 | 90 | 1006.8 |
| 20260506200641 | 60 | 100 | 2.0 | 5.0 | 0.00 | 0.06 | 0.06 | 90 | 1007.0 |
| 20260506200138 | 60 | 134 | 5.0 | 6.0 | 0.00 | 0.06 | 0.06 | 90 | 1006.9 |
| 20260506195635 | 60 | 127 | 4.0 | 6.0 | 0.00 | 0.06 | 0.06 | 90 | 1006.8 |
| 20260506195131 | 60 | 125 | 4.0 | 4.0 | 0.00 | 0.06 | 0.06 | 90 | 1006.9 |
| 20260506194629 | 60 | 134 | 4.0 | 6.0 | 0.00 | 0.06 | 0.06 | 89 | 1007.0 |
| 20260506194124 | 60 | 146 | 4.0 | 6.0 | 0.02 | 0.06 | 0.06 | 89 | 1006.9 |
| 20260506193623 | 60 | 149 | 6.0 | 6.0 | 0.05 | 0.06 | 0.06 | 89 | 1007.1 |
| 20260506193120 | 60 | 115 | 4.0 | 6.0 | 0.09 | 0.05 | 0.05 | 88 | 1007.1 |
| 20260506192616 | 61 | 114 | 5.0 | 10.0 | 0.09 | 0.05 | 0.05 | 86 | 1007.0 |
| 20260506192112 | 61 | 114 | 4.0 | 8.0 | 0.07 | 0.04 | 0.04 | 85 | 1007.2 |
| 20260506191609 | 62 | 114 | 3.0 | 6.0 | 0.05 | 0.03 | 0.03 | 85 | 1007.1 |
| 20260506191105 | 62 | 103 | 3.0 | 5.0 | 0.05 | 0.02 | 0.02 | 83 | 1007.0 |
| 20260506190603 | 62 | 139 | 5.0 | 8.0 | 0.05 | 0.02 | 0.02 | 82 | 1007.0 |
| 20260506190059 | 63 | 54 | 1.0 | 5.0 | 0.02 | 0.02 | 0.02 | 81 | 1007.0 |
| 20260506185556 | 63 | 127 | 3.0 | 4.0 | 0.02 | 0.01 | 0.01 | 79 | 1007.2 |
| 20260506185053 | 64 | 109 | 2.0 | 4.0 | 0.05 | 0.01 | 0.01 | 78 | 1007.2 |
| 20260506184550 | 65 | 149 | 4.0 | 6.0 | 0.05 | 0.01 | 0.01 | 74 | 1007.2 |
| 20260506184047 | 66 | 116 | 3.0 | 5.0 | 0.02 | 0.00 | 0.00 | 72 | 1007.1 |
| 20260506183543 | 66 | 129 | 3.0 | 5.0 | 0.00 | 0.00 | 0.00 | 70 | 1007.5 |
| 20260506183040 | 67 | 137 | 3.0 | 4.0 | 0.00 | 0.00 | 0.00 | 68 | 1007.5 |
| 20260506182538 | 67 | 130 | 3.0 | 6.0 | 0.00 | 0.00 | 0.00 | 68 | 1007.6 |
| 20260506182035 | 67 | 140 | 4.0 | 7.0 | 0.00 | 0.00 | 0.00 | 65 | 1007.5 |
| 20260506181533 | 68 | 141 | 6.0 | 11.0 | 0.00 | 0.00 | 0.00 | 64 | 1007.3 |
| 20260506181029 | 68 | 149 | 2.0 | 6.0 | 0.00 | 0.00 | 0.00 | 64 | 1007.5 |
| 20260506180525 | 68 | 134 | 5.0 | 11.0 | 0.00 | 0.00 | 0.00 | 61 | 1007.5 |
| 20260506180022 | 69 | 118 | 3.0 | 6.0 | 0.00 | 0.00 | 0.00 | 60 | 1007.9 |
| 20260506175519 | 70 | 169 | 4.0 | 6.0 | 0.00 | 0.00 | 0.00 | 57 | 1007.4 |
| 20260506175015 | 70 | 123 | 3.0 | 8.0 | 0.00 | 0.00 | 0.00 | 56 | 1007.5 |
| 20260506174514 | 71 | 152 | 6.0 | 11.0 | 0.00 | 0.00 | 0.00 | 55 | 1007.2 |
| 20260506174010 | 71 | 116 | 4.0 | 6.0 | 0.00 | 0.00 | 0.00 | 54 | 1007.4 |
| 20260506173508 | 71 | 74 | 1.0 | 11.0 | 0.00 | 0.00 | 0.00 | 54 | 1007.7 |
| 20260506173004 | 71 | 125 | 5.0 | 10.0 | 0.00 | 0.00 | 0.00 | 54 | 1007.4 |
| 20260506172502 | 72 | 139 | 9.0 | 11.0 | 0.00 | 0.00 | 0.00 | 53 | 1007.9 |
| 20260506171957 | 72 | 135 | 3.0 | 8.0 | 0.00 | 0.00 | 0.00 | 53 | 1007.3 |
| 20260506171455 | 71 | 122 | 4.0 | 9.0 | 0.00 | 0.00 | 0.00 | 54 | 1007.6 |
| 20260506170953 | 71 | 136 | 5.0 | 8.0 | 0.00 | 0.00 | 0.00 | 54 | 1007.7 |
| 20260506170449 | 72 | 144 | 3.0 | 6.0 | 0.00 | 0.00 | 0.00 | 53 | 1007.5 |
| 20260506165948 | 72 | 118 | 2.0 | 8.0 | 0.00 | 0.00 | 0.00 | 53 | 1007.5 |
| 20260506165446 | 73 | 113 | 5.0 | 9.0 | 0.00 | 0.00 | 0.00 | 52 | 1007.5 |
| 20260506164942 | 72 | 157 | 7.0 | 9.0 | 0.00 | 0.00 | 0.00 | 53 | 1007.7 |
| 20260506164439 | 71 | 144 | 4.0 | 11.0 | 0.00 | 0.00 | 0.00 | 53 | 1007.7 |
| 20260506163936 | 71 | 121 | 6.0 | 10.0 | 0.00 | 0.00 | 0.00 | 53 | 1008.0 |
| 20260506163431 | 71 | 139 | 5.0 | 8.0 | 0.00 | 0.00 | 0.00 | 53 | 1008.1 |
| 20260506162926 | 71 | 154 | 4.0 | 11.0 | 0.00 | 0.00 | 0.00 | 54 | 1008.0 |
| 20260506162424 | 71 | 131 | 5.0 | 8.0 | 0.00 | 0.00 | 0.00 | 55 | 1008.0 |
| 20260506161922 | 71 | 102 | 3.0 | 6.0 | 0.00 | 0.00 | 0.00 | 56 | 1008.2 |
| 20260506161420 | 71 | 134 | 3.0 | 5.0 | 0.00 | 0.00 | 0.00 | 56 | 1008.1 |
| 20260506160917 | 71 | 273 | 1.0 | 6.0 | 0.00 | 0.00 | 0.00 | 56 | 1008.2 |
| 20260506160414 | 70 | 84 | 2.0 | 6.0 | 0.00 | 0.00 | 0.00 | 56 | 1008.4 |
| 20260506155912 | 70 | 141 | 4.0 | 9.0 | 0.00 | 0.00 | 0.00 | 56 | 1008.4 |
| 20260506155409 | 70 | 35 | 2.0 | 4.0 | 0.00 | 0.00 | 0.00 | 57 | 1008.6 |
| 20260506153530 | 70 | 119 | 6.0 | 6.0 | 0.00 | 0.00 | 0.00 | 57 | 1008.7 |
| 20260506153028 | 70 | 232 | 3.0 | 4.0 | 0.00 | 0.00 | 0.00 | 57 | 1008.9 |
| 20260506152525 | 70 | 117 | 3.0 | 9.0 | 0.00 | 0.00 | 0.00 | 56 | 1008.8 |
| 20260506152023 | 70 | 122 | 2.0 | 5.0 | 0.00 | 0.00 | 0.00 | 58 | 1008.9 |
| 20260506151520 | 70 | 157 | 5.0 | 5.0 | 0.00 | 0.00 | 0.00 | 58 | 1009.2 |
| 20260506151018 | 70 | 122 | 6.0 | 8.0 | 0.00 | 0.00 | 0.00 | 58 | 1009.1 |
| 20260506150513 | 70 | 145 | 3.0 | 8.0 | 0.00 | 0.00 | 0.00 | 58 | 1009.1 |
| 20260506150011 | 70 | 140 | 5.0 | 10.0 | 0.00 | 0.00 | 0.00 | 57 | 1009.0 |
| 20260506145507 | 71 | 122 | 6.0 | 8.0 | 0.00 | 0.00 | 0.00 | 57 | 1009.1 |
| 20260506145005 | 70 | 117 | 3.0 | 5.0 | 0.00 | 0.00 | 0.00 | 58 | 1009.1 |
| 20260506144501 | 70 | 135 | 2.0 | 6.0 | 0.00 | 0.00 | 0.00 | 60 | 1009.1 |
| 20260506143959 | 69 | 148 | 6.0 | 7.0 | 0.00 | 0.00 | 0.00 | 60 | 1009.1 |
| 20260506143456 | 69 | 137 | 7.0 | 9.0 | 0.00 | 0.00 | 0.00 | 60 | 1009.2 |
| 20260506142955 | 69 | 118 | 4.0 | 6.0 | 0.00 | 0.00 | 0.00 | 61 | 1009.1 |
| 20260506142452 | 69 | 40 | 4.0 | 8.0 | 0.00 | 0.00 | 0.00 | 62 | 1009.2 |
| 20260506141949 | 68 | 105 | 7.0 | 7.0 | 0.00 | 0.00 | 0.00 | 63 | 1009.0 |
| 20260506141447 | 68 | 113 | 6.0 | 8.0 | 0.00 | 0.00 | 0.00 | 64 | 1009.2 |
| 20260506140946 | 68 | 123 | 4.0 | 10.0 | 0.00 | 0.00 | 0.00 | 64 | 1009.0 |
| 20260506140442 | 68 | 139 | 5.0 | 8.0 | 0.00 | 0.00 | 0.00 | 65 | 1009.1 |
| 20260506135939 | 67 | 153 | 6.0 | 6.0 | 0.00 | 0.00 | 0.00 | 65 | 1009.1 |
| 20260506135437 | 67 | 144 | 7.0 | 7.0 | 0.00 | 0.00 | 0.00 | 66 | 1009.3 |
| 20260506134932 | 67 | 154 | 5.0 | 6.0 | 0.00 | 0.00 | 0.00 | 66 | 1009.5 |
| 20260506134429 | 66 | 146 | 9.0 | 10.0 | 0.00 | 0.00 | 0.00 | 67 | 1009.2 |
| 20260506133926 | 66 | 156 | 7.0 | 10.0 | 0.00 | 0.00 | 0.00 | 65 | 1009.2 |
| 20260506133423 | 66 | 145 | 6.0 | 6.0 | 0.00 | 0.00 | 0.00 | 67 | 1009.3 |
| 20260506132919 | 67 | 131 | 7.0 | 9.0 | 0.00 | 0.00 | 0.00 | 66 | 1009.5 |
| 20260506132416 | 67 | 119 | 5.0 | 8.0 | 0.00 | 0.00 | 0.00 | 66 | 1009.6 |
| 20260506131914 | 66 | 141 | 6.0 | 6.0 | 0.00 | 0.00 | 0.00 | 67 | 1009.9 |
| 20260506131410 | 66 | 85 | 3.0 | 8.0 | 0.00 | 0.00 | 0.00 | 68 | 1009.9 |
| 20260506130908 | 65 | 115 | 2.0 | 8.0 | 0.00 | 0.00 | 0.00 | 70 | 1009.8 |
| 20260506130403 | 65 | 126 | 3.0 | 4.0 | 0.00 | 0.00 | 0.00 | 71 | 1009.6 |
| 20260506125902 | 65 | 155 | 2.0 | 6.0 | 0.00 | 0.00 | 0.00 | 69 | 1009.9 |
| 20260506125400 | 65 | 144 | 7.0 | 9.0 | 0.00 | 0.00 | 0.00 | 69 | 1009.5 |
| 20260506124858 | 65 | 147 | 8.0 | 8.0 | 0.00 | 0.00 | 0.00 | 70 | 1009.6 |
| 20260506124354 | 64 | 131 | 5.0 | 6.0 | 0.00 | 0.00 | 0.00 | 70 | 1009.5 |
| 20260506123853 | 65 | 111 | 2.0 | 5.0 | 0.00 | 0.00 | 0.00 | 70 | 1009.7 |
| 20260506123351 | 64 | 115 | 5.0 | 5.0 | 0.00 | 0.00 | 0.00 | 72 | 1009.6 |
| 20260506122848 | 64 | 112 | 3.0 | 5.0 | 0.00 | 0.00 | 0.00 | 72 | 1009.8 |
| 20260506122344 | 64 | 98 | 3.0 | 6.0 | 0.00 | 0.00 | 0.00 | 72 | 1009.8 |
| 20260506121843 | 64 | 79 | 2.0 | 6.0 | 0.00 | 0.00 | 0.00 | 72 | 1009.8 |
| 20260506121339 | 63 | 115 | 4.0 | 8.0 | 0.00 | 0.00 | 0.00 | 73 | 1009.7 |
| 20260506120836 | 63 | 136 | 3.0 | 6.0 | 0.00 | 0.00 | 0.00 | 74 | 1009.7 |
| 20260506120334 | 63 | 128 | 3.0 | 5.0 | 0.00 | 0.00 | 0.00 | 74 | 1009.6 |
| 20260506115831 | 63 | 132 | 2.0 | 7.0 | 0.00 | 0.00 | 0.00 | 74 | 1009.9 |
| 20260506115329 | 62 | 96 | 2.0 | 5.0 | 0.00 | 0.00 | 0.00 | 74 | 1009.8 |
| 20260506114827 | 62 | 117 | 3.0 | 5.0 | 0.00 | 0.00 | 0.00 | 76 | 1009.9 |
| 20260506114325 | 61 | 110 | 2.0 | 6.0 | 0.00 | 0.00 | 0.00 | 76 | 1009.9 |
| 20260506113823 | 61 | 152 | 6.0 | 6.0 | 0.00 | 0.00 | 0.00 | 76 | 1009.9 |
| 20260506113320 | 61 | 109 | 4.0 | 5.0 | 0.00 | 0.00 | 0.00 | 77 | 1010.0 |
| 20260506112817 | 61 | 114 | 2.0 | 4.0 | 0.00 | 0.00 | 0.00 | 77 | 1010.1 |
| 20260506112314 | 61 | 146 | 4.0 | 9.0 | 0.00 | 0.00 | 0.00 | 77 | 1010.2 |
| 20260506111811 | 61 | 115 | 4.0 | 6.0 | 0.00 | 0.00 | 0.00 | 77 | 1010.2 |
| 20260506111309 | 60 | 128 | 4.0 | 8.0 | 0.00 | 0.00 | 0.00 | 77 | 1010.1 |
| 20260506110807 | 60 | 95 | 2.0 | 4.0 | 0.00 | 0.00 | 0.00 | 78 | 1010.1 |
| 20260506110303 | 60 | 122 | 4.0 | 6.0 | 0.00 | 0.00 | 0.00 | 78 | 1010.0 |
| 20260506105800 | 60 | 151 | 5.0 | 6.0 | 0.00 | 0.00 | 0.00 | 78 | 1009.8 |
| 20260506105257 | 60 | 103 | 2.0 | 4.0 | 0.00 | 0.00 | 0.00 | 78 | 1009.9 |
| 20260506104755 | 60 | 117 | 2.0 | 5.0 | 0.00 | 0.00 | 0.00 | 79 | 1010.4 |
| 20260506104252 | 59 | 115 | 2.0 | 5.0 | 0.00 | 0.00 | 0.00 | 79 | 1010.2 |
| 20260506103749 | 59 | 148 | 6.0 | 6.0 | 0.00 | 0.00 | 0.00 | 79 | 1009.9 |
| 20260506103247 | 59 | 123 | 4.0 | 6.0 | 0.00 | 0.00 | 0.00 | 79 | 1009.7 |
| 20260506102744 | 59 | 94 | 2.0 | 5.0 | 0.00 | 0.00 | 0.00 | 80 | 1009.9 |
| 20260506102242 | 59 | 117 | 2.0 | 5.0 | 0.00 | 0.00 | 0.00 | 79 | 1010.0 |
| 20260506101739 | 59 | 152 | 5.0 | 6.0 | 0.00 | 0.00 | 0.00 | 79 | 1010.2 |
| 20260506101235 | 59 | 130 | 3.0 | 5.0 | 0.00 | 0.00 | 0.00 | 79 | 1010.0 |
| 20260506100733 | 59 | 120 | 2.0 | 5.0 | 0.00 | 0.00 | 0.00 | 79 | 1010.0 |
| 20260506100231 | 59 | 106 | 2.0 | 6.0 | 0.00 | 0.00 | 0.00 | 79 | 1010.0 |
| 20260506095729 | 59 | 110 | 5.0 | 5.0 | 0.00 | 0.00 | 0.00 | 79 | 1009.8 |
| 20260506095226 | 59 | 117 | 3.0 | 5.0 | 0.00 | 0.00 | 0.00 | 79 | 1009.9 |
| 20260506094723 | 59 | 127 | 3.0 | 4.0 | 0.00 | 0.00 | 0.00 | 79 | 1010.0 |
| 20260506094221 | 59 | 116 | 3.0 | 6.0 | 0.00 | 0.00 | 0.00 | 79 | 1009.9 |
| 20260506093720 | 59 | 138 | 5.0 | 6.0 | 0.00 | 0.00 | 0.00 | 78 | 1009.6 |
| 20260506093216 | 59 | 107 | 4.0 | 5.0 | 0.00 | 0.00 | 0.00 | 78 | 1009.5 |
| 20260506092714 | 59 | 105 | 3.0 | 4.0 | 0.00 | 0.00 | 0.00 | 78 | 1009.9 |
| 20260506092211 | 59 | 140 | 4.0 | 5.0 | 0.00 | 0.00 | 0.00 | 78 | 1009.8 |
| 20260506091709 | 59 | 123 | 3.0 | 4.0 | 0.00 | 0.00 | 0.00 | 78 | 1009.8 |
| 20260506091206 | 59 | 127 | 3.0 | 5.0 | 0.00 | 0.00 | 0.00 | 78 | 1009.8 |
| 20260506090704 | 59 | 144 | 4.0 | 5.0 | 0.00 | 0.00 | 0.00 | 77 | 1010.0 |
| 20260506090200 | 59 | 120 | 4.0 | 8.0 | 0.00 | 0.00 | 0.00 | 77 | 1009.8 |
| 20260506085657 | 59 | 125 | 4.0 | 6.0 | 0.00 | 0.00 | 0.00 | 77 | 1009.7 |
| 20260506085153 | 59 | 119 | 3.0 | 5.0 | 0.00 | 0.00 | 0.00 | 77 | 1009.8 |
| 20260506084650 | 60 | 126 | 4.0 | 5.0 | 0.00 | 0.00 | 0.00 | 77 | 1010.0 |
| 20260506084147 | 60 | 137 | 3.0 | 7.0 | 0.00 | 0.00 | 0.00 | 76 | 1009.8 |
| 20260506083644 | 60 | 123 | 3.0 | 7.0 | 0.00 | 0.00 | 0.00 | 76 | 1010.0 |
| 20260506083141 | 60 | 144 | 6.0 | 6.0 | 0.00 | 0.00 | 0.00 | 76 | 1009.9 |
| 20260506082638 | 60 | 157 | 4.0 | 6.0 | 0.00 | 0.00 | 0.00 | 76 | 1009.9 |
| 20260506082133 | 60 | 114 | 4.0 | 6.0 | 0.00 | 0.00 | 0.00 | 75 | 1010.0 |
| 20260506081632 | 60 | 136 | 3.0 | 5.0 | 0.00 | 0.00 | 0.00 | 75 | 1010.0 |
| 20260506081129 | 60 | 140 | 6.0 | 6.0 | 0.00 | 0.00 | 0.00 | 75 | 1009.9 |
| 20260506080627 | 60 | 109 | 5.0 | 6.0 | 0.00 | 0.00 | 0.00 | 75 | 1009.7 |
| 20260506080123 | 60 | 147 | 5.0 | 5.0 | 0.00 | 0.00 | 0.00 | 74 | 1009.8 |
| 20260506073107 | 61 | 148 | 5.0 | 9.0 | 0.00 | 0.00 | 0.00 | 72 | 1009.9 |
| 20260506072603 | 61 | 114 | 4.0 | 8.0 | 0.00 | 0.00 | 0.00 | 72 | 1009.9 |
| 20260506072102 | 61 | 145 | 6.0 | 6.0 | 0.00 | 0.00 | 0.00 | 72 | 1009.8 |
| 20260506071559 | 61 | 145 | 7.0 | 10.0 | 0.00 | 0.00 | 0.00 | 71 | 1009.5 |
| 20260506071056 | 61 | 123 | 3.0 | 6.0 | 0.00 | 0.00 | 0.00 | 71 | 1009.8 |
| 20260506070553 | 62 | 143 | 6.0 | 6.0 | 0.00 | 0.00 | 0.00 | 71 | 1009.4 |
| 20260506062028 | 63 | 147 | 6.0 | 9.0 | 0.00 | 0.00 | 0.00 | 67 | 1009.4 |
| 20260506061523 | 63 | 135 | 4.0 | 9.0 | 0.00 | 0.00 | 0.00 | 67 | 1009.4 |
| 20260506061021 | 63 | 153 | 4.0 | 8.0 | 0.00 | 0.00 | 0.00 | 67 | 1009.3 |
| 20260506060520 | 63 | 126 | 5.0 | 6.0 | 0.00 | 0.00 | 0.00 | 66 | 1009.5 |
| 20260506050948 | 64 | 141 | 3.0 | 5.0 | 0.00 | 0.00 | 0.00 | 63 | 1009.8 |
| 20260506050446 | 64 | 112 | 4.0 | 6.0 | 0.00 | 0.00 | 0.00 | 63 | 1009.5 |
| 20260506044936 | 64 | 126 | 3.0 | 6.0 | 0.00 | 0.00 | 0.00 | 62 | 1009.8 |
| 20260506044435 | 63 | 147 | 6.0 | 8.0 | 0.00 | 0.00 | 0.00 | 62 | 1009.8 |
| 20260506043931 | 63 | 113 | 4.0 | 7.0 | 0.00 | 0.00 | 0.00 | 62 | 1010.0 |
| 20260506043428 | 63 | 94 | 3.0 | 5.0 | 0.00 | 0.00 | 0.00 | 62 | 1009.9 |
| 20260506042926 | 63 | 123 | 4.0 | 6.0 | 0.00 | 0.00 | 0.00 | 62 | 1010.1 |
| 20260506042425 | 63 | 133 | 4.0 | 5.0 | 0.00 | 0.00 | 0.00 | 62 | 1009.7 |
| 20260506041923 | 63 | 117 | 2.0 | 6.0 | 0.00 | 0.00 | 0.00 | 62 | 1009.9 |
| 20260506041420 | 63 | 169 | 0.0 | 11.0 | 0.00 | 0.00 | 0.00 | 62 | 1009.9 |
| 20260506040918 | 63 | 131 | 3.0 | 6.0 | 0.00 | 0.00 | 0.00 | 62 | 1010.0 |
| 20260506040415 | 63 | 115 | 4.0 | 6.0 | 0.00 | 0.00 | 0.00 | 62 | 1009.9 |
| 20260506035911 | 63 | 119 | 4.0 | 7.0 | 0.00 | 0.00 | 0.00 | 62 | 1010.0 |
| 20260506035409 | 63 | 109 | 2.0 | 5.0 | 0.00 | 0.00 | 0.00 | 62 | 1010.0 |
| 20260506034905 | 63 | 121 | 3.0 | 6.0 | 0.00 | 0.00 | 0.00 | 62 | 1009.8 |
| 20260506034402 | 63 | 142 | 7.0 | 7.0 | 0.00 | 0.00 | 0.00 | 62 | 1009.9 |
| 20260506033859 | 63 | 128 | 4.0 | 6.0 | 0.00 | 0.00 | 0.00 | 62 | 1010.0 |
| 20260506033356 | 63 | 132 | 3.0 | 5.0 | 0.00 | 0.00 | 0.00 | 62 | 1009.9 |
| 20260506032853 | 63 | 152 | 6.0 | 6.0 | 0.00 | 0.00 | 0.00 | 62 | 1010.0 |
| 20260506032350 | 63 | 133 | 5.0 | 6.0 | 0.00 | 0.00 | 0.00 | 61 | 1009.6 |
| 20260506031847 | 63 | 114 | 4.0 | 9.0 | 0.00 | 0.00 | 0.00 | 61 | 1009.6 |
| 20260506031344 | 63 | 120 | 3.0 | 5.0 | 0.00 | 0.00 | 0.00 | 61 | 1009.7 |
| 20260506030842 | 63 | 141 | 4.0 | 9.0 | 0.00 | 0.00 | 0.00 | 61 | 1009.8 |
| 20260506030340 | 63 | 133 | 4.0 | 9.0 | 0.00 | 0.00 | 0.00 | 61 | 1009.7 |
| 20260506025836 | 63 | 137 | 4.0 | 8.0 | 0.00 | 0.00 | 0.00 | 61 | 1009.8 |
| 20260506025332 | 63 | 106 | 3.0 | 11.0 | 0.00 | 0.00 | 0.00 | 60 | 1010.0 |
| 20260506024830 | 63 | 129 | 3.0 | 8.0 | 0.00 | 0.00 | 0.00 | 61 | 1009.8 |
| 20260506024326 | 63 | 107 | 3.0 | 8.0 | 0.00 | 0.00 | 0.00 | 60 | 1009.7 |
| 20260506023823 | 63 | 132 | 5.0 | 6.0 | 0.00 | 0.00 | 0.00 | 60 | 1010.0 |
| 20260506023320 | 64 | 154 | 4.0 | 9.0 | 0.00 | 0.00 | 0.00 | 59 | 1009.8 |
| 20260506022816 | 64 | 134 | 5.0 | 11.0 | 0.00 | 0.00 | 0.00 | 59 | 1009.8 |
| 20260506022314 | 64 | 120 | 4.0 | 8.0 | 0.00 | 0.00 | 0.00 | 59 | 1009.7 |
| 20260506021812 | 64 | 133 | 5.0 | 10.0 | 0.00 | 0.00 | 0.00 | 58 | 1009.8 |
| 20260506021309 | 64 | 137 | 9.0 | 10.0 | 0.00 | 0.00 | 0.00 | 58 | 1009.9 |
| 20260506020805 | 64 | 145 | 6.0 | 10.0 | 0.00 | 0.00 | 0.00 | 58 | 1009.9 |
| 20260506020303 | 64 | 104 | 3.0 | 7.0 | 0.00 | 0.00 | 0.00 | 58 | 1009.9 |
| 20260506015801 | 64 | 136 | 6.0 | 7.0 | 0.00 | 0.00 | 0.00 | 58 | 1009.6 |
| 20260506015258 | 64 | 120 | 5.0 | 11.0 | 0.00 | 0.00 | 0.00 | 57 | 1009.7 |
| 20260506014755 | 64 | 142 | 6.0 | 6.0 | 0.00 | 0.00 | 0.00 | 57 | 1009.7 |
| 20260506014251 | 65 | 123 | 4.0 | 7.0 | 0.00 | 0.00 | 0.00 | 57 | 1009.4 |
| 20260506013748 | 65 | 89 | 4.0 | 8.0 | 0.00 | 0.00 | 0.00 | 56 | 1009.4 |
| 20260506013246 | 65 | 65 | 1.0 | 8.0 | 0.00 | 0.00 | 0.00 | 56 | 1009.3 |
| 20260506012742 | 65 | 135 | 6.0 | 8.0 | 0.00 | 0.00 | 0.00 | 56 | 1009.4 |
| 20260506012239 | 65 | 138 | 3.0 | 5.0 | 0.00 | 0.00 | 0.00 | 56 | 1009.4 |
| 20260506011736 | 66 | 107 | 3.0 | 6.0 | 0.00 | 0.00 | 0.00 | 55 | 1009.4 |
| 20260506011232 | 66 | 139 | 4.0 | 9.0 | 0.00 | 0.00 | 0.00 | 55 | 1009.2 |
| 20260506010731 | 66 | 127 | 4.0 | 6.0 | 0.00 | 0.00 | 0.00 | 55 | 1009.1 |
| 20260506010228 | 66 | 136 | 3.0 | 7.0 | 0.00 | 0.00 | 0.00 | 55 | 1009.1 |
| 20260506005725 | 66 | 145 | 8.0 | 9.0 | 0.00 | 0.00 | 0.00 | 54 | 1008.9 |
| 20260506005222 | 67 | 123 | 5.0 | 6.0 | 0.00 | 0.00 | 0.00 | 54 | 1008.8 |
| 20260506004718 | 67 | 134 | 5.0 | 7.0 | 0.00 | 0.00 | 0.00 | 54 | 1009.0 |
| 20260506004216 | 67 | 161 | 7.0 | 13.0 | 0.00 | 0.00 | 0.00 | 53 | 1008.8 |
| 20260506003711 | 67 | 123 | 2.0 | 9.0 | 0.00 | 0.00 | 0.00 | 53 | 1008.9 |
| 20260506003208 | 68 | 134 | 6.0 | 9.0 | 0.00 | 0.00 | 0.00 | 52 | 1008.9 |
| 20260506002704 | 68 | 117 | 6.0 | 6.0 | 0.00 | 0.00 | 0.00 | 52 | 1008.7 |
| 20260506002200 | 68 | 128 | 3.0 | 7.0 | 0.00 | 0.00 | 0.00 | 51 | 1008.6 |
| 20260506001656 | 68 | 128 | 3.0 | 8.0 | 0.00 | 0.00 | 0.00 | 50 | 1008.6 |
| 20260506001154 | 69 | 130 | 4.0 | 8.0 | 0.00 | 0.00 | 0.00 | 49 | 1008.4 |
| 20260506000650 | 69 | 143 | 6.0 | 12.0 | 0.00 | 0.00 | 0.00 | 49 | 1008.3 |